METAR TAF Other Links Past 48-hour METAR METAR in this month
How to decode METAR/TAF?
Latest METAR (Issued by Hong Kong International Airport)
ICAO: VHHH

METAR VHHH 190600Z 17008KT 120V250 9999 FEW012 SCT030 26/19 Q1015 
TEMPO 27010KT= 

Latest TAF (Issued by Hong Kong International Airport)
ICAO: VHHH

TAF VHHH 190500Z 1906/2012 09010KT 9999 FEW020 SCT030 TX25/1907Z 
TX27/2006Z TN21/1923Z TEMPO 1908/1912 4000 SHRA FEW015CB SCT025 TEMPO 
2000/2012 16010KT= 

Other Links

National Weather Service (NWS)

Please select a meteorological centre from the following items.

Latest METAR:

Latest TAF:

Aviation Briefing Limited

To access the provided information, you must be a registered user to the server. You can Register Now, there is no charge for registration or use of the information.

Please select a meteorological centre from the following items.

Latest METAR/TAF:

Weather Underground of Hong Kong

ICAO: VHHH (Hong Kong International Airport)

Decoded 6-hourly Surface Synoptic Report
Latest METAR
Latest TAF

Hong Kong Weather Graphics

METAR from the Hong Kong International Airport (ICAO: VHHH) in the past 72 hours are plotted in the following graphs.

Temperature Variation
Visibility Variation
Pressure Variation
Wind Speeds & Directions

Hong Kong Observatory

Weather Forecast for Local Aviation
Aviation Weather Report (METAR/SPECI)
Aerodrome Forecast (TAF)


If you have any suggestions about this site, please kindly send an email to webmaster@weatherland.org.hk.